Regional Weather Roundup
Issued by NWS

Home | Current Version | Previous Version | Graphics & Text | Print | Product List | Glossary On
Versions: 1 2 3 4 5 6 7 8 9 10 11 12 13 14 15 16 17 18 19 20 21 22 23 24 25 26 27 28 29 30 31 32 33 34 35 36 37 38 39 40 41 42 43 44 45 46 47 48 49 50
000
ASUS43 KLSX 241457
RWRMO

WEATHER SUMMARY FOR MISSOURI
NATIONAL WEATHER SERVICE SPRINGFIELD MO
900 AM CST FRI NOV 24 2017

NOTE: "FAIR" INDICATES FEW OR NO CLOUDS BELOW 12,000 FEET WITH NO
       SIGNIFICANT WEATHER AND/OR OBSTRUCTIONS TO VISIBILITY.
       CURRENT SKY AND/OR WEATHER CONDITIONS ARE NOT AVAILABLE FOR
       CHILLICOTHE AND FARMINGTON.

MOZ001>031-035>038-043-044-053-054-241600-
...NORTHERN AND WESTERN MISSOURI...

CITY           SKY/WX    TMP DP  RH WIND       PRES   REMARKS
KANSAS CTY INT MOSUNNY   56  36  47 SW18G26   29.68S
LEE`S SUMMIT     N/A     53  35  50 SW15      29.72F
ST JOSEPH      SUNNY     56  36  47 SW21      29.63F
CHILLICOTHE      N/A     53  36  52 S15G23    29.67F

$$
MOZ066>068-077>081-088>096-101>105-241600-
...SOUTHWEST MISSOURI...

CITY           SKY/WX    TMP DP  RH WIND       PRES   REMARKS
SPRINGFIELD    SUNNY     51  35  54 S13       29.85F
JOPLIN         SUNNY     57  33  40 S14G22    29.85S
BRANSON        MOSUNNY   57  30  35 CALM      29.90F

$$
MOZ032>034-039>042-045>050-055>058-069>072-241600-
...CENTRAL MISSOURI...

CITY           SKY/WX    TMP DP  RH WIND       PRES   REMARKS
COLUMBIA       NOT AVBL
JEFFERSON CITY MOSUNNY   51  33  50 S5        29.81F
ROLLA          SUNNY     54  32  43 SW15      29.85F
SEDALIA        SUNNY     56  35  45 SW20G30   29.78F
WARRENSBURG    SUNNY     50  34  53 S10       29.75F

$$
MOZ051-052-059>065-241600-
...EAST CENTRAL MISSOURI...

CITY           SKY/WX    TMP DP  RH WIND       PRES   REMARKS
ST LOUIS INTL  CLOUDY    47  33  58 SE6       29.84F

$$
MOZ072>076-082>087-097>100-106>115-241600-
...SOUTH CENTRAL AND SOUTHEAST MISSOURI...

CITY           SKY/WX    TMP DP  RH WIND       PRES   REMARKS
CAPE GIRARDEAU CLOUDY    41  32  70 S9        29.94F
POPLAR BLUFF   MOSUNNY   41  34  76 S5        29.95R
WEST PLAINS    SUNNY     52  31  44 SW8       29.91F

$$



USA.gov is the U.S. government's official web portal to all federal, state and local government web resources and services.